Wind_Speed
26 24 24 25 26 26 26 26 27 27 25 23 22 23 24 25 25 22 20 20 20 19 17 15 14 13 13 13 14 14 14 13 13 12 11 12 11 11 11 11 11 11
27 25 24 24 25 26 26 26 27 27 26 24 23 22 22 22 24 23 21 20 20 20 18 17 16 15 15 15 15 16 15 14 14 13 12 12 12 11 11 11 12 13
28 27 25 25 25 26 26 26 27 26 25 24 23 22 21 20 21 22 21 20 20 20 19 19 18 17 16 16 17 17 16 16 15 14 13 13 13 13 13 13 13 13
29 28 27 25 25 25 26 27 27 27 25 24 23 23 22 21 21 22 22 22 22 21 21 20 19 18 18 17 18 18 17 17 17 16 15 14 14 14 14 14 14 14
30 29 28 27 25 25 26 28 28 28 27 26 25 24 23 23 23 23 23 23 23 22 21 20 19 19 19 19 19 18 18 17 16 16 15 14 14 14 15 15 15 15
30 29 29 28 27 26 26 28 28 28 28 28 27 26 25 25 25 25 24 23 22 21 20 19 19 19 20 20 19 18 17 16 15 15 15 14 13 14 14 15 15 15
30 29 29 28 27 27 27 27 28 29 29 29 29 29 28 27 27 26 24 23 22 21 20 20 20 20 21 20 19 18 17 16 16 16 15 14 13 14 14 14 15 15
32 29 27 28 28 28 28 28 27 28 28 29 29 29 28 28 27 26 25 24 23 22 21 20 21 21 20 20 19 18 17 17 17 17 17 16 14 13 13 14 14 15
33 31 28 28 27 27 28 29 28 27 27 27 27 27 27 27 26 25 24 23 23 22 22 21 21 21 20 20 19 19 18 18 17 17 17 17 16 14 13 14 15 16
33 34 32 30 28 27 27 28 28 27 26 25 25 25 25 25 25 23 22 22 22 22 22 21 21 21 20 20 19 19 19 19 18 18 18 18 16 14 15 15 15 16
31 31 31 30 29 29 29 28 29 29 27 25 24 23 24 24 25 23 22 21 21 21 21 21 21 21 20 20 20 20 20 20 19 19 20 20 17 15 15 16 15 15
29 26 26 26 27 30 32 32 31 29 28 27 25 24 24 25 25 23 20 20 21 21 21 21 20 20 20 20 20 20 20 19 19 19 20 20 18 15 15 16 16 16
27 24 25 26 28 30 32 31 30 29 28 26 25 24 24 25 25 22 20 20 21 21 21 20 20 19 19 19 19 19 19 19 19 20 20 19 18 17 16 16 16 16
22 23 24 25 27 27 27 29 29 29 28 27 26 25 24 22 22 22 21 21 21 21 21 20 20 19 19 19 19 19 19 19 20 19 18 17 17 18 17 16 15 15
20 21 21 22 23 24 26 29 29 27 27 28 26 24 22 20 19 19 20 21 22 22 21 21 20 19 19 19 19 20 20 19 19 18 16 16 16 16 16 15 15 15
16 16 17 18 17 15 17 21 20 20 24 25 22 21 20 20 19 18 19 20 22 22 22 21 20 19 19 19 18 18 18 18 18 17 15 15 15 16 16 15 14 15
13 14 14 14 12 9 9 9 9 11 16 17 17 19 20 20 19 18 18 19 21 22 21 20 20 19 18 17 16 17 17 16 16 15 15 15 15 15 15 14 14 15
11 13 13 11 10 9 9 8 7 9 12 14 16 18 19 20 19 18 18 19 20 20 19 19 19 18 17 16 15 15 15 14 13 13 14 14 13 14 14 13 13 14
10 12 12 11 10 9 10 9 9 10 12 13 14 16 17 18 18 17 18 18 18 18 18 18 18 18 17 17 15 14 13 12 12 12 13 13 13 13 13 13 13 13
9 9 9 9 8 8 9 8 8 10 11 12 13 14 15 16 16 16 17 16 16 16 17 18 17 17 17 16 14 12 12 12 12 12 12 11 12 13 13 13 13 13
7 7 7 8 8 8 8 7 7 9 10 10 11 12 12 13 14 15 15 15 15 15 16 16 15 14 14 13 12 11 12 13 13 12 11 11 12 13 13 14 14 14
6 6 6 7 8 7 5 4 5 6 7 8 9 9 10 11 13 13 13 12 12 13 13 12 11 11 10 10 9 10 10 11 11 10 10 11 12 13 14 14 15 15
7 7 7 7 6 4 1 2 3 4 6 7 8 9 10 11 12 11 10 9 9 9 8 6 6 6 7 7 8 8 9 9 9 9 10 12 13 14 15 15 16 17
6 6 6 6 5 3 2 2 3 3 5 7 8 8 7 8 8 7 5 5 4 4 3 2 3 4 6 7 8 9 9 9 11 12 13 15 16 17 18 19 20 21
5 4 5 5 5 3 2 2 3 4 5 6 5 4 3 4 5 5 3 2 1 0 2 3 5 6 6 7 9 10 11 12 14 15 17 18 19 20 21 22 22 21
5 4 4 5 5 4 3 4 4 3 4 4 3 1 2 3 4 3 1 2 3 4 5 6 8 9 8 8 10 12 14 15 17 18 20 22 22 22 21 20 19 18
Wind_Direction
233 234 235 235 236 237 237 234 229 228 231 233 235 238 240 239 236 238 244 246 247 248 250 255 261 265 266 264 262 262 262 263 263 262 258 258 261 267 273 278 278 275
234 234 235 237 238 237 237 234 229 228 231 235 237 239 241 241 238 239 245 247 247 249 252 258 264 267 268 267 266 264 264 265 264 263 261 259 260 267 273 278 278 274
234 235 237 238 239 237 236 235 232 231 233 236 239 241 241 241 240 242 248 250 251 255 259 263 265 267 268 267 265 265 267 270 269 268 265 261 260 265 271 276 277 275
236 238 239 241 243 241 239 238 237 236 237 239 241 241 241 243 244 248 253 257 260 263 265 265 266 268 268 268 266 266 269 273 272 269 265 262 264 269 273 275 275 274
239 241 243 246 247 245 242 241 241 241 242 243 244 244 243 245 249 253 258 262 264 266 266 265 266 267 269 270 268 267 269 270 270 267 264 264 269 276 277 275 274 273
242 243 245 249 250 249 246 244 245 245 246 247 248 249 249 250 253 257 260 263 264 264 265 264 265 267 269 270 267 265 265 266 267 267 265 265 270 275 277 276 276 275
243 246 247 250 253 252 250 249 248 248 249 250 252 252 252 252 255 258 259 261 261 262 263 264 264 266 267 267 265 262 262 265 267 267 265 265 267 270 273 275 277 278
243 247 250 251 252 253 253 253 252 251 251 252 253 254 253 254 256 258 259 260 261 260 262 264 264 265 266 265 263 261 263 265 266 266 264 262 262 266 271 274 273 273
244 247 250 251 253 254 255 254 253 253 253 252 252 253 254 255 257 259 261 260 260 259 260 262 263 264 264 263 263 262 263 265 267 266 262 259 258 262 270 273 269 266
244 245 248 249 253 255 255 254 254 254 253 252 251 251 252 253 255 258 261 261 260 259 260 262 263 264 264 263 263 264 264 265 265 263 258 254 252 259 271 273 267 264
245 249 252 251 254 257 257 255 254 254 255 254 252 251 251 252 254 256 260 261 261 260 261 263 264 266 267 266 265 264 264 264 264 262 259 256 253 260 271 271 265 263
245 251 256 255 254 255 255 255 253 253 255 256 255 253 251 253 257 259 259 259 261 261 261 262 264 267 270 268 265 264 263 264 265 263 261 260 258 261 267 266 263 262
248 250 255 256 255 254 258 262 262 259 259 260 261 258 254 254 259 260 254 254 258 260 260 260 261 264 267 267 264 263 262 262 262 261 259 257 258 260 260 260 261 262
248 250 255 260 261 261 263 264 262 260 260 260 260 260 260 260 261 258 250 249 253 256 258 259 258 259 262 262 260 260 261 260 259 258 256 255 258 259 258 257 260 261
251 253 259 265 269 269 267 264 262 258 253 252 254 257 260 260 259 256 251 250 253 254 256 257 258 258 259 259 258 258 259 261 260 257 253 252 253 254 255 256 258 261
249 253 259 263 266 266 265 265 262 249 239 241 247 251 251 251 253 251 249 252 255 255 255 256 256 257 256 256 259 261 262 264 262 257 250 245 243 247 252 253 254 259
241 243 246 250 249 246 250 254 244 225 224 231 239 242 244 247 249 248 247 250 252 251 252 253 254 254 253 255 260 262 263 263 260 253 244 238 239 245 249 249 251 257
231 234 237 236 232 230 236 238 224 215 220 228 236 240 242 245 246 247 248 249 248 247 247 248 249 248 248 251 254 255 255 256 252 245 238 234 237 241 243 245 250 254
224 231 234 235 233 228 231 234 229 224 225 230 236 239 241 244 246 248 250 249 246 244 243 243 243 242 244 246 244 241 242 243 237 232 230 230 233 236 240 245 248 251
221 228 233 242 249 244 240 240 236 231 229 231 235 238 241 245 247 248 247 244 241 238 237 238 239 237 236 235 232 230 230 229 227 226 227 231 236 240 243 247 248 251
216 217 225 247 257 248 239 232 229 229 229 231 233 235 238 239 238 240 239 234 230 229 230 229 227 226 225 224 222 220 219 221 225 229 231 236 243 247 248 251 254 257
202 202 215 238 249 246 236 228 233 231 231 235 231 223 223 222 221 223 224 219 217 218 218 216 212 213 218 220 221 222 222 227 232 237 243 249 253 255 257 261 264 266
194 200 212 227 242 254 266 279 267 237 225 231 224 214 214 212 209 208 205 203 205 207 207 211 216 220 222 225 230 232 233 240 247 251 256 259 258 259 263 267 270 272
188 198 213 225 237 241 247 283 291 258 228 223 215 212 212 203 194 186 173 167 174 182 195 234 254 240 226 223 229 232 232 240 249 254 257 258 260 263 267 270 272 274
183 195 212 223 229 227 233 257 269 269 257 240 222 207 194 174 158 142 122 103 91 334 286 287 282 270 253 237 234 239 243 248 253 257 259 262 265 268 271 273 273 273
183 189 201 207 210 214 225 231 236 257 270 266 258 226 161 145 136 123 86 1 330 313 302 291 284 282 276 261 253 255 258 260 261 263 266 269 272 274 274 274 271 268
Height
1537 1539 1540 1541 1543 1544 1546 1548 1549 1551 1552 1553 1554 1555 1556 1557 1559 1560 1561 1561 1562 1563 1564 1564 1565 1566 1566 1567 1567 1568 1568 1569 1569 1570 1570 1570 1570 1570 1570 1570 1570 1570
1536 1537 1539 1540 1541 1542 1544 1545 1547 1548 1550 1551 1552 1553 1555 1556 1557 1559 1559 1560 1560 1561 1562 1563 1563 1564 1564 1565 1566 1566 1567 1567 1568 1568 1568 1568 1569 1569 1569 1569 1569 1569
1535 1536 1537 1538 1539 1540 1542 1543 1545 1546 1548 1549 1550 1551 1553 1554 1556 1557 1558 1558 1559 1560 1560 1561 1562 1562 1563 1563 1564 1565 1565 1566 1566 1567 1567 1567 1567 1567 1568 1568 1568 1567
1534 1535 1536 1537 1538 1539 1540 1542 1543 1544 1545 1547 1548 1550 1551 1552 1554 1555 1556 1556 1557 1558 1559 1559 1560 1560 1561 1562 1562 1563 1563 1564 1564 1565 1565 1565 1566 1566 1566 1566 1566 1566
1532 1534 1535 1536 1537 1538 1539 1540 1541 1542 1543 1544 1546 1548 1549 1550 1552 1553 1554 1554 1555 1556 1557 1557 1558 1559 1559 1560 1560 1561 1562 1562 1563 1563 1563 1564 1564 1565 1565 1565 1565 1565
1530 1532 1533 1534 1535 1537 1537 1538 1539 1540 1541 1543 1544 1546 1547 1549 1550 1551 1552 1553 1554 1554 1555 1556 1557 1557 1558 1558 1559 1559 1560 1561 1561 1562 1562 1562 1563 1563 1563 1564 1564 1564
1528 1530 1531 1533 1534 1535 1535 1536 1538 1539 1540 1541 1543 1544 1546 1547 1548 1549 1550 1551 1552 1553 1553 1554 1555 1556 1556 1557 1557 1558 1558 1559 1560 1560 1560 1561 1561 1562 1562 1562 1562 1562
1526 1528 1529 1530 1531 1532 1533 1535 1536 1537 1538 1539 1541 1542 1544 1545 1546 1547 1548 1549 1550 1551 1551 1552 1553 1554 1554 1554 1555 1556 1557 1557 1558 1558 1559 1559 1559 1560 1560 1560 1560 1560
1525 1526 1526 1528 1529 1530 1531 1532 1534 1535 1536 1537 1538 1540 1541 1543 1544 1545 1546 1547 1547 1548 1549 1550 1550 1551 1552 1552 1553 1554 1554 1555 1556 1556 1557 1557 1557 1558 1558 1558 1558 1558
1522 1522 1523 1525 1526 1528 1529 1530 1531 1533 1534 1535 1536 1538 1539 1540 1542 1543 1543 1544 1545 1546 1546 1547 1548 1549 1549 1550 1551 1551 1552 1553 1553 1554 1554 1555 1555 1556 1556 1556 1555 1555
1519 1520 1521 1523 1524 1525 1526 1527 1528 1530 1531 1532 1533 1535 1536 1537 1538 1540 1541 1541 1542 1543 1544 1544 1545 1546 1546 1547 1548 1549 1549 1550 1550 1551 1551 1552 1552 1553 1554 1554 1553 1553
1516 1517 1519 1520 1521 1521 1521 1522 1525 1527 1528 1529 1531 1532 1533 1534 1535 1537 1539 1539 1539 1540 1541 1541 1542 1543 1544 1544 1545 1546 1546 1547 1547 1548 1549 1549 1550 1550 1551 1551 1551 1551
1513 1515 1515 1516 1517 1518 1519 1520 1523 1525 1527 1529 1529 1530 1530 1531 1532 1534 1536 1536 1536 1537 1537 1538 1539 1540 1541 1541 1542 1543 1544 1544 1544 1544 1545 1546 1548 1549 1549 1549 1549 1549
1511 1512 1513 1514 1515 1516 1518 1518 1519 1522 1525 1527 1526 1526 1527 1528 1529 1530 1531 1532 1533 1533 1534 1535 1536 1536 1537 1538 1538 1539 1540 1540 1540 1540 1541 1542 1545 1546 1547 1547 1546 1546
1507 1509 1510 1512 1512 1513 1514 1513 1514 1518 1521 1521 1522 1523 1524 1526 1526 1527 1528 1529 1530 1530 1532 1532 1533 1533 1534 1534 1535 1536 1536 1537 1538 1537 1537 1539 1541 1543 1544 1544 1544 1544
1504 1506 1508 1509 1510 1510 1510 1510 1511 1513 1514 1516 1519 1520 1521 1522 1523 1524 1525 1526 1527 1528 1529 1529 1530 1530 1531 1532 1532 1533 1534 1534 1535 1534 1534 1535 1537 1539 1541 1541 1542 1542
1502 1503 1505 1506 1507 1507 1507 1508 1509 1509 1511 1513 1515 1516 1517 1518 1519 1520 1521 1523 1524 1525 1526 1526 1527 1528 1529 1530 1530 1531 1531 1531 1532 1532 1533 1534 1535 1536 1538 1539 1539 1540
1502 1502 1502 1503 1504 1505 1505 1506 1507 1508 1509 1511 1512 1513 1514 1515 1516 1517 1518 1520 1521 1522 1523 1523 1524 1525 1527 1528 1528 1528 1528 1529 1529 1530 1532 1533 1533 1534 1535 1536 1536 1537
1501 1500 1500 1501 1503 1503 1504 1504 1505 1506 1507 1509 1510 1511 1511 1512 1513 1514 1516 1517 1518 1519 1520 1521 1522 1523 1524 1525 1526 1526 1526 1527 1528 1529 1530 1531 1531 1531 1532 1533 1534 1535
1500 1499 1499 1501 1502 1504 1504 1503 1503 1504 1505 1506 1507 1508 1509 1510 1511 1513 1514 1515 1516 1516 1517 1518 1519 1521 1522 1523 1523 1523 1524 1525 1526 1527 1528 1528 1529 1529 1530 1531 1531 1532
1498 1499 1498 1500 1503 1505 1505 1504 1503 1503 1503 1503 1504 1505 1506 1508 1510 1511 1512 1513 1513 1514 1515 1516 1517 1519 1520 1520 1521 1521 1522 1523 1524 1525 1526 1526 1526 1527 1528 1529 1530 1530
1496 1497 1498 1499 1501 1504 1504 1502 1502 1501 1501 1502 1502 1503 1504 1506 1508 1509 1510 1510 1511 1512 1513 1515 1516 1517 1518 1519 1519 1520 1521 1522 1523 1523 1524 1524 1525 1525 1526 1527 1528 1528
1494 1496 1497 1498 1499 1500 1500 1500 1500 1501 1500 1501 1501 1502 1503 1504 1505 1507 1508 1509 1510 1511 1512 1513 1515 1516 1517 1518 1519 1520 1520 1521 1522 1522 1523 1523 1523 1524 1524 1525 1525 1526
1492 1494 1495 1496 1497 1497 1498 1498 1499 1500 1500 1501 1501 1502 1502 1503 1504 1505 1506 1508 1509 1511 1512 1512 1514 1516 1517 1518 1519 1520 1520 1520 1521 1521 1522 1522 1522 1523 1523 1523 1523 1523
1490 1492 1493 1494 1495 1495 1496 1497 1498 1499 1500 1501 1501 1501 1502 1503 1504 1505 1506 1508 1509 1510 1511 1512 1514 1515 1516 1518 1519 1519 1519 1520 1520 1520 1520 1520 1521 1521 1521 1521 1520 1520
1489 1490 1492 1492 1493 1494 1496 1497 1497 1498 1499 1500 1501 1501 1502 1503 1504 1506 1507 1508 1509 1510 1511 1512 1513 1514 1515 1517 1518 1518 1518 1518 1518 1518 1518 1518 1518 1518 1517 1517 1517 1517